Regional Weather Roundup
Issued by NWS

Home | Current Version | Previous Version | Text Only | Print | Product List | Glossary On
Versions: 1 2 3 4 5 6 7 8 9 10 11 12 13 14 15 16 17 18 19 20 21 22 23 24 25 26 27 28 29 30 31 32 33 34 35 36 37 38 39 40 41 42 43 44 45 46 47 48 49 50
000
ASUS46 KSEW 280510
RWRWA

WASHINGTON REGIONAL WEATHER ROUNDUP
NATIONAL WEATHER SERVICE SEATTLE WA
1000 PM PDT FRI MAR 27 2015

NOTE:"FAIR" INDICATES FEW OR NO CLOUDS BELOW 12,000 FEET WITH NO
SIGNIFICANT WEATHER AND/OR OBSTRUCTIONS TO VISIBILITY.

WAZ505-507>509-280600-
SEATTLE, TACOMA, EVERETT, AND VICINITY

CITY           SKY/WX    TMP DP  RH WIND       PRES   REMARKS
EVERETT        CLOUDY    54  47  77 S17G32    29.95S
BOEING FIELD   MOCLDY    57  48  72 SW15G23   30.01R
RENTON         LGT RAIN  55  49  80 S12G22    30.01R
SEATAC AIRPORT CLOUDY    53  48  83 SW18G29   30.02R
JBLM-MCCHORD   RAIN      53  52  99 SW10G18   30.04R FOG
PUYALLUP       DRIZZLE   52  52 100 SW6G14    30.05R
BREMERTON      CLOUDY    50  48  93 S18G26    30.01R
JBLM-FT LEWIS  CLOUDY    52  52  99 S10       30.03R
TACOMA NARROWS LGT RAIN  52  48  86 SW12      30.04R
$$

WAZ001-503-506-510-514-515-280600-
NORTH INTERIOR

CITY           SKY/WX    TMP DP  RH WIND       PRES   REMARKS
BELLINGHAM     RAIN      54  50  86 VRB7      29.93R FOG
FRIDAY HARBOR  CLOUDY    52  48  86 SW8       29.92S
EASTSOUND      HVY RAIN  54  50  87 SW10G16   29.91R
PORT ANGELES   CLOUDY    52  46  80 W8        29.93S
NAS WHIDBEY    RAIN      54  49  83 NW6       29.95R
ARLINGTON      CLOUDY    57  46  67 S13G21    29.96R
BURLINGTON     CLOUDY    55  52  88 MISG      29.95R FOG
$$

WAZ020-022-039-040-504-511-512-280600-
SOUTHWEST INTERIOR

CITY           SKY/WX    TMP DP  RH WIND       PRES   REMARKS
SHELTON        LGT RAIN  50  48  93 SW14      30.00R
OLYMPIA        LGT RAIN  52  49  89 SW7       30.05R
CHEHALIS       LGT RAIN  54  50  87 SW5       30.07R
KELSO          CLOUDY    54  48  82 CALM      30.14R
VANCOUVER      CLOUDY    56  44  64 W9        30.11R
SCAPPOOSE, OR  CLOUDY    54  47  77 CALM      30.10R
PORTLAND, OR   CLOUDY    57  46  66 W15       30.12R
$$

WAZ021-516-517-280600-
WASHINGTON COAST

CITY           SKY/WX    TMP DP  RH WIND       PRES   REMARKS
FORKS          CLOUDY    50  47  89 W13       30.00R
HOQUIAM        LGT RAIN  52  50  93 SW20      30.05R FOG
ASTORIA, OR    MOCLDY    51  47  86 SW12      30.11R
$$

WAZ019-023-024-040-518-519-280600-
CASCADE MOUNTAINS AND COLUMBIA GORGE

CITY           SKY/WX    TMP DP  RH WIND       PRES   REMARKS
TROUTDALE, OR  LGT RAIN  56  50  80 SW10      30.10R
THE DALLES, OR CLOUDY    61  46  57 NW14      29.97R
$$

WAZ026-027-041>044-520-521-280600-
EAST SLOPES

CITY           SKY/WX    TMP DP  RH WIND       PRES   REMARKS
OMAK           LGT RAIN  58  49  72 W6        29.81S
WENATCHEE      CLOUDY    64  49  57 NW14      29.81F
ELLENSBURG     CLOUDY    60  47  61 NW16G23   29.88R
YAKIMA         CLOUDY    66  34  30 S6        29.87R
$$

WAZ028-034-035-280600-
COLUMBIA BASIN

CITY           SKY/WX    TMP DP  RH WIND       PRES   REMARKS
EPHRATA        CLOUDY    59  51  75 CALM      29.82S
MOSES LAKE     CLOUDY    65  46  50 S10       29.83S
PASCO          CLOUDY    67  43  41 W17G25    29.86R
HERMISTON, OR  LGT RAIN  65  41  41 W22G29    29.90R
$$

WAZ036>038-280600-
NORTHEAST WASHINGTON

CITY           SKY/WX    TMP DP  RH WIND       PRES   REMARKS
SPOKANE GEIGER MOCLDY    57  48  72 S5        29.85F
SPOKANE FELTS  PTCLDY    53  48  83 NE3       29.86F
FAIRCHILD AFB  MOCLDY    56  48  75 S2        29.85F
COEURDALENE,ID CLEAR     54  46  76 CALM      29.86F
DEER PARK      PTCLDY    48  44  86 CALM      29.86F
$$

WAZ029>033-280600-
SOUTHEAST WASHINGTON

CITY           SKY/WX    TMP DP  RH WIND       PRES   REMARKS
PULLMAN        MOCLDY    54  49  83 CALM      29.89F
LEWISTON, ID   PTCLDY    61  52  72 S7        29.85S
WALLA WALLA    CLOUDY    63  54  72 SW3       29.86R
PENDLETON, OR  CLOUDY    63  46  54 W16       29.90R
$$



USA.gov is the U.S. government's official web portal to all federal, state and local government web resources and services.